Terminal Aerodrome Forecast
Issued by NWS

Home | Current Version | Previous Version | Text Only | Print | Product List | Glossary On
Versions: 1 2 3 4 5 6 7 8 9 10 11 12 13 14 15 16 17 18 19 20 21
000
FTUS42 KKEY 010538
TAFMTH
TAF
KMTH 010538Z 0106/0206 07011KT P6SM FEW025 SCT050
     FM010900 10010G17KT P6SM SCT025 SCT050
     FM011400 10012G20KT P6SM SCT025 BKN050=

USA.gov is the U.S. government's official web portal to all federal, state and local government web resources and services.